sat.trackr.live / text

‹ back to catalog

STARLINK-36795

NORAD 67809 · 2026-032N

PAYLOAD ACTIVE UNKNOWN

§ Identity

Operator
Country
US
Launch date
2026-02-15
Launch site
AFWTR
Launch vehicle
Mass (kg)
RCS (m²)

Purposes: comms

External: N2YO · Heavens-Above · Gunter

§ Orbital elements

Epoch: 2026-09-19T18:57:54.474048Z

Period
93.90 min
Inclination
97.2859°
Eccentricity
0.0000705
Mean motion
15.33465192 rev/d
Perigee alt
465.0 km
Apogee alt
466.0 km
Semi-major
6,843.6 km
B*
5.6930e-4
RAAN
89.1638°
Arg perigee
84.6177°
Mean anomaly
275.5146°
Rev number
3,470

§ Raw data

STARLINK-367951 67809U 26032N   26262.79021382  .00018360  00000+0  56930-3 0  99962 67809  97.2859  89.1638 0000705  84.6177 275.5146 15.33465192 34705

JSON: /api/v1/satellites/67809 · /tle

For live sub-satellite position, see the globe view (requires WebGL).

§ Visibility from observer

Set your observer location to see the next 7 days of passes ≥ 10°. The values pass through the URL so the page stays shareable.

No JS? Fill the form by hand. The geolocation button needs JavaScript.